Regional Weather Roundup
Issued by NWS

Home | Current Version | Previous Version | Graphics & Text | Print | Product List | Glossary On
Versions: 1 2 3 4 5 6 7 8 9 10 11 12 13 14 15 16 17 18 19 20 21 22 23 24 25 26 27
000
ASUS45 KBOU 290107
RWRCO

WEATHER ROUNDUP FOR COLORADO
NATIONAL WEATHER SERVICE DENVER/BOULDER CO
700 PM MDT FRI APR 28 2017

NOTE: "FAIR" INDICATES FEW OR NO CLOUDS BELOW 12000 FEET WITH NO
SIGNIFICANT WEATHER AND/OR OBSTRUCTIONS TO VISIBILITY.

COZ001>005-013-030-031-290200-
...NORTHWEST COLORADO...

CITY           SKY/WX    TMP DP  RH WIND       PRES   REMARKS
CRAIG          CLOUDY    40  26  57 VRB3      29.84R
HAYDEN         FAIR      34  25  69 N9        29.83R WCI  26
MEEKER         CLOUDY    33  31  92 W7        29.84S WCI  27
MOUNT WERNER   NOT AVBL
STEAMBOAT SPGS PTSUNNY   39  25  57 SW3       29.81R
WALDEN           N/A     30  19  64 E16G25    29.85R WCI  19
$$

COZ006>008-011-290200-
...WEST CENTRAL VALLEYS...

CITY           SKY/WX    TMP DP  RH WIND       PRES   REMARKS
GRAND JUNCTION FAIR      49  20  31 NE12      29.77R
MONTROSE       FAIR      44  20  38 SE13      29.79S
EAGLE          FAIR      42  18  37 SW10      29.80R
RIFLE          FAIR      44  25  47 NW8       29.79F
DELTA          CLOUDY    49  20  31 NE14      29.75S
NUCLA          FAIR      41  21  45 SE3       29.83S
$$

COZ017>023-064>068-290200-
...SOUTHWEST COLORADO...

CITY           SKY/WX    TMP DP  RH WIND       PRES   REMARKS
DURANGO        FAIR      37  24  59 E8        29.75R
CORTEZ         FAIR      40  20  44 N8        29.78R
PAGOSA SPRINGS FAIR      35  19  52 CALM      29.76R
TELLURIDE      LGT SNOW  23  23  97 W7        29.79F WCI  15
WOLF CREEK PAS LGT SNOW  16  16 100 CALM      29.82R
$$

COZ009-010-012-014-032>034-037-058>063-290200-
...CENTRAL COLORADO...

CITY           SKY/WX    TMP DP  RH WIND       PRES   REMARKS
ASPEN          PTSUNNY   35  18  49 VRB5      29.78R WCI  31
BUENA VISTA    LGT SNOW  30  26  86 W7        29.82R WCI  23
COPPER MTN     CLOUDY    21  12  68 MISG      29.81S
BERTHOUD PASS  HVY SNOW  12   1  62 MISG      29.81S VSB<1/4
COTTONWOOD PAS LGT SNOW  28  27  93 CALM      29.82R VSB 3/4
GUNNISON       FAIR      38  11  32 SW6       29.75R
KREMMLING      FAIR      41  27  56 S7        29.81R
LEADVILLE      LGT SNOW  21  18  88 N5        29.80R VSB 3/4 WCI  15
SALIDA         CLOUDY    35  29  79 N5        29.88R WCI  31
SUNLIGHT       FAIR      19  12  73 CALM      29.85R
WILKERSON PASS SNOW      21  19  93 E8        29.84R VSB 1/2 WCI  12
$$

COZ069>075-290200-
...SAN LUIS VALLEY/SANGRE DE CRISTO MOUNTAINS...

CITY           SKY/WX    TMP DP  RH WIND       PRES   REMARKS
ALAMOSA        FAIR      38  25  59 NE13G24   29.71F
LA VETA PASS   CLOUDY    27  23  86 W9        29.88R WCI  17
SAGUACHE       FAIR      34  21  60 E8        29.76S WCI  27
$$

COZ035-036-038>040-290200-
...NORTHERN COLORADO FRONT RANGE...

CITY           SKY/WX    TMP DP  RH WIND       PRES   REMARKS
DENVER INTL AP LGT SNOW  33  31  92 NE18      29.90R WCI  22
DMNS CITY PARK   N/A     33  33  99 NE8G18    29.91R WCI  27
AURORA         LGT SNOW  32  32  99 NE15      29.89R VSB 3/4 WCI  22
FRONT RANGE AP NOT AVBL
ERIE MUNI ARPT LGT SNOW  34  33  94 N13G21    29.93R WCI  25
BOULDER MUN AP LGT SNOW  34  32  93 N16       29.93R WCI  23
CENTENNIAL     SNOW      32  32 100 N8        29.88R VSB 1/2 WCI  25
BROOMFIELD     FLURRIES  36  32  87 N3        29.91R
FORT COLLINS   FLURRIES  32  30  93 NE16      29.98R WCI  21
LONGMONT       MIX PCPN  37  33  88 NE16G22   29.97R
$$

COZ041-046-047-076>085-087-088-290200-
...PIKES PEAK/PALMER DIVIDE AND SOUTHERN FOOTHILLS...

CITY           SKY/WX    TMP DP  RH WIND       PRES   REMARKS
COLO. SPRINGS  LGT SNOW  38  32  79 N14       29.83R
A. F. ACADEMY  SNOW      33  31  94 NW15      29.82R VSB 1/2 WCI  22
SCHRIEVER AFB  CLOUDY    37  32  81 N22G31    29.81
ELLICOTT       LGT SNOW N/A N/A N/A NE20      29.79R
FALCON         CLOUDY    34  32  92 NE14G21   29.83R WCI  25
FORT CARSON    MOCLDY    40  29  63 N20       29.80R
LIMON          CLOUDY    33  33 100 NE22G31   29.84R WCI  21
MONUMENT HILL  SNOW      30  30 100 NE15      29.85R VSB 1/4 WCI  19
TRINIDAD       FAIR      51  28  41 SW9       29.67R
$$

COZ042>045-048>051-090-091-290200-
...NORTHEAST COLORADO...

CITY           SKY/WX    TMP DP  RH WIND       PRES   REMARKS
GREELEY ARPT   LGT SNOW  33  32  96 NE18      29.98R FOG     WCI  22
AKRON          CLOUDY    32  30  92 NE17G29   29.91R FOG     WCI  21
BURLINGTON     NOT AVBL
WRAY           NOT AVBL
STERLING       CLOUDY    34  32  93 NE14G25   29.95S WCI  24
HOLYOKE        CLOUDY    37  34  87 NE16      29.96R
FORT MORGAN    CLOUDY    32  31  96 NE20G28   29.94R WCI  20
$$

COZ086-089-092>099-290200-
...SOUTHEAST COLORADO...

CITY           SKY/WX    TMP DP  RH WIND       PRES   REMARKS
PUEBLO         TSTM      44  38  79 N15G22    29.78R
LA JUNTA       FAIR      49  41  74 E30G37    29.73R
LAMAR          CLOUDY    45  39  79 E28G36    29.77R
SPRINGFIELD      N/A     43  41  93 NE5       29.76R
$$




USA.gov is the U.S. government's official web portal to all federal, state and local government web resources and services.